Location: Boitzum
(52.1496°N, 9.6943°E)
Time: 07:08:17
(UTC+00:00)

CZ-4C R/B - Pass Details

Date: 13 January 2026
Orbit: 482 x 1496 km, 63.4° (Epoch: 18 February)

Event Time Altitude Azimuth Distance (km) Brightness Sun altitude
Exits shadow 05:20:05 20° 325° (NW) 1,959 3.7 -18.3°
Maximum altitude 05:23:17 31° 12° (NNE) 1,658 3.7 -17.8°
Drops below altitude 10° 05:29:40 10° 73° (ENE) 3,098 6.0 -16.8°
Sets 05:33:09 0° 83° (E) 4,227 7.2 -16.3°
